WN4MDN Weather Reports


Display with metric or nautical units.
time (UTC)temp
F
wind
direction
speed
MPH
gust
MPH
rain 1hr
in
rain 24hr
in
rain mn
in
humidity
%
barometer
mb
20260905012537 78 150 1.0 2.0 0.00 0.00 0.00 83 1015.3
20260905012034 79 150 1.0 2.0 0.00 0.00 0.00 82 1015.3
20260905011600 79 150 1.0 2.0 0.00 0.00 0.00 82 1015.3
20260905011034 79 150 1.0 2.0 0.00 0.00 0.00 81 1015.3
20260905010534 79 151 1.0 2.0 0.00 0.00 0.00 81 1015.3
20260905010107 79 171 0.0 2.0 0.00 0.00 0.00 81 1015.3
20260905005535 79 171 1.0 2.0 0.00 0.00 0.00 81 1015.2
20260905005038 79 171 1.0 2.0 0.00 0.00 0.00 80 1015.2
20260905004558 79 0 0.0 2.0 0.00 0.00 0.00 81 1015.3
20260905004034 79 171 0.0 2.0 0.00 0.00 0.00 80 1015.3
20260905003537 79 171 0.0 2.0 0.00 0.00 0.00 80 1015.3
20260905003055 80 171 0.0 2.0 0.00 0.00 0.00 80 1015.3
20260905002532 80 171 0.0 2.0 0.00 0.00 0.00 80 1015.3
20260905002034 80 171 0.0 2.0 0.00 0.00 0.00 78 1015.3
20260905001551 80 171 0.0 2.0 0.00 0.00 0.00 79 1015.3
20260905001036 81 171 0.0 4.0 0.00 0.00 0.00 77 1015.1
20260905000534 81 171 1.0 4.0 0.00 0.00 0.00 76 1015.0
20260905000100 81 0 1.0 4.0 0.00 0.00 0.00 76 1015.0
20260904235534 81 164 1.0 4.0 0.00 0.01 0.00 76 1014.9
20260904235033 81 196 0.0 3.0 0.00 0.01 0.00 77 1014.8
20260904234600 81 197 1.0 4.0 0.00 0.01 0.00 77 1014.7
20260904234036 82 188 2.0 4.0 0.00 0.01 0.00 78 1014.7
20260904233535 82 159 1.0 3.0 0.00 0.01 0.00 79 1014.7
20260904233102 82 210 1.0 4.0 0.00 0.01 0.00 79 1014.7
20260904232536 82 209 2.0 5.0 0.00 0.01 0.00 79 1014.9
20260904232032 82 213 3.0 5.0 0.00 0.01 0.00 79 1014.7
20260904231608 83 236 2.0 4.0 0.00 0.01 0.00 79 1014.7
20260904231031 83 239 1.0 3.0 0.00 0.01 0.00 79 1014.7
20260904230534 83 233 0.0 2.0 0.00 0.01 0.00 78 1014.7
20260904230104 83 277 0.0 2.0 0.00 0.01 0.00 78 1014.6
20260904225534 83 277 0.0 2.0 0.00 0.02 0.00 77 1014.5
20260904225033 83 0 0.0 2.0 0.00 0.02 0.00 78 1014.5
20260904224600 83 277 0.0 2.0 0.00 0.02 0.00 78 1014.4
20260904224034 83 277 0.0 2.0 0.00 0.02 0.00 77 1014.2
20260904223534 83 0 0.0 6.0 0.00 0.02 0.00 78 1014.1
20260904223057 83 0 0.0 6.0 0.00 0.02 0.00 77 1014.1
20260904222536 83 281 1.0 4.0 0.00 0.02 0.00 76 1014.0
20260904222036 83 273 1.0 2.0 0.00 0.02 0.00 76 1013.9
20260904221606 83 0 0.0 4.0 0.00 0.02 0.00 76 1013.9
20260904221036 83 230 0.0 4.0 0.00 0.02 0.00 75 1013.9
20260904220536 83 226 1.0 4.0 0.00 0.02 0.00 73 1013.8
20260904220104 83 281 1.0 6.0 0.00 0.02 0.00 74 1013.8
20260904215535 84 281 1.0 6.0 0.00 0.09 0.00 73 1013.9
20260904215035 84 271 2.0 6.0 0.00 0.09 0.00 72 1013.8
20260904214600 85 281 1.0 4.0 0.00 0.09 0.00 72 1013.8
20260904214035 85 276 2.0 6.0 0.00 0.09 0.00 71 1013.7
20260904213535 85 277 1.0 6.0 0.00 0.09 0.00 71 1013.8
20260904213105 86 269 2.0 6.0 0.00 0.09 0.00 69 1013.9
20260904212535 87 310 1.0 4.0 0.00 0.09 0.00 67 1014.0
20260904212035 87 256 1.0 7.0 0.00 0.09 0.00 66 1014.1
20260904211558 88 227 2.0 7.0 0.00 0.09 0.00 63 1014.2
20260904211036 89 279 2.0 8.0 0.00 0.09 0.00 63 1014.2
20260904210535 90 197 5.0 9.0 0.00 0.09 0.00 61 1014.1
20260904210057 90 189 3.0 9.0 0.00 0.09 0.00 60 1014.1
20260904205535 90 212 4.0 8.0 0.00 0.21 0.00 61 1014.2
20260904205036 90 226 4.0 9.0 0.00 0.21 0.00 61 1014.4
20260904204601 90 230 6.0 11.0 0.00 0.21 0.00 62 1014.5
20260904204036 90 234 6.0 11.0 0.00 0.21 0.00 63 1014.4
20260904203537 90 214 6.0 11.0 0.00 0.21 0.00 62 1014.4
20260904203101 90 200 7.0 14.0 0.00 0.21 0.00 61 1014.5
20260904202536 91 210 9.0 14.0 0.00 0.21 0.00 58 1014.5
20260904202036 91 219 5.0 10.0 0.00 0.21 0.00 57 1014.4
20260904201557 92 209 5.0 11.0 0.00 0.21 0.00 56 1014.3
20260904201034 91 156 6.0 11.0 0.00 0.21 0.00 57 1014.1
20260904200538 91 199 5.0 11.0 0.00 0.21 0.00 55 1013.9
20260904200112 91 184 5.0 12.0 0.00 0.21 0.00 55 1014.0
20260904195539 91 207 7.0 12.0 0.00 0.21 0.00 60 1014.2
20260904195038 91 134 7.0 11.0 0.00 0.21 0.00 63 1014.3
20260904194603 91 159 7.0 12.0 0.00 0.21 0.00 63 1014.5
20260904194036 91 153 8.0 12.0 0.00 0.21 0.00 63 1014.4
20260904193536 92 146 6.0 11.0 0.00 0.21 0.00 63 1014.3
20260904193100 91 217 5.0 11.0 0.00 0.21 0.00 60 1014.4
20260904192536 91 123 6.0 11.0 0.00 0.21 0.00 62 1014.6
20260904192036 92 165 4.0 10.0 0.00 0.21 0.00 58 1014.6
20260904191600 92 198 7.0 11.0 0.00 0.21 0.00 55 1014.6
20260904191037 92 216 5.0 11.0 0.00 0.21 0.00 52 1014.9
20260904190535 92 215 6.0 11.0 0.00 0.21 0.00 54 1015.0
20260904190055 92 200 5.0 9.0 0.00 0.21 0.00 53 1015.0
20260904185536 92 175 3.0 10.0 0.00 0.21 0.00 54 1015.0
20260904185036 92 172 5.0 10.0 0.00 0.21 0.00 53 1015.0
20260904184618 92 206 6.0 9.0 0.00 0.21 0.00 53 1015.0
20260904184033 92 240 1.0 10.0 0.00 0.21 0.00 57 1015.1
20260904183538 92 205 4.0 10.0 0.00 0.21 0.00 51 1015.2
20260904183059 91 196 7.0 10.0 0.00 0.21 0.00 54 1015.4
20260904182546 91 112 5.0 10.0 0.00 0.21 0.00 55 1015.5
20260904182035 92 214 4.0 11.0 0.00 0.21 0.00 58 1015.5
20260904181558 91 181 4.0 11.0 0.00 0.21 0.00 58 1015.5
20260904181035 91 202 5.0 10.0 0.00 0.21 0.00 60 1015.5
20260904180534 91 182 4.0 12.0 0.00 0.21 0.00 60 1015.5
20260904180105 91 140 5.0 11.0 0.00 0.21 0.00 58 1015.6
20260904175536 91 155 4.0 9.0 0.00 0.21 0.00 62 1015.7
20260904175035 91 251 4.0 8.0 0.00 0.21 0.00 59 1015.7
20260904174555 91 230 2.0 8.0 0.00 0.21 0.00 59 1015.9
20260904174035 91 225 5.0 8.0 0.00 0.21 0.00 57 1015.9
20260904173536 91 223 2.0 11.0 0.00 0.21 0.00 63 1015.8
20260904173110 91 212 5.0 11.0 0.00 0.21 0.00 62 1015.8
20260904172536 91 203 4.0 10.0 0.00 0.21 0.00 57 1015.8
20260904172035 90 232 5.0 10.0 0.00 0.21 0.00 60 1015.9
20260904171600 90 240 4.0 10.0 0.00 0.21 0.00 61 1016.0
20260904171035 90 220 5.0 10.0 0.00 0.21 0.00 61 1016.2
20260904170536 89 195 7.0 10.0 0.00 0.21 0.00 58 1016.3
20260904165538 89 221 6.0 12.0 0.00 0.21 0.00 60 1016.3
20260904165037 89 194 5.0 12.0 0.00 0.21 0.00 65 1016.4
20260904164607 90 176 6.0 11.0 0.00 0.21 0.00 64 1016.4
20260904164037 90 180 5.0 12.0 0.00 0.21 0.00 61 1016.3
20260904163536 89 228 6.0 12.0 0.00 0.21 0.00 63 1016.4
20260904163103 89 195 5.0 10.0 0.00 0.21 0.00 62 1016.4
20260904162536 89 229 5.0 10.0 0.00 0.21 0.00 60 1016.6
20260904162034 89 228 5.0 10.0 0.00 0.21 0.00 63 1016.6
20260904161609 89 253 4.0 10.0 0.00 0.21 0.00 66 1016.6
20260904161037 89 254 5.0 10.0 0.00 0.21 0.00 69 1016.6
20260904160536 88 205 2.0 10.0 0.00 0.21 0.00 68 1016.7
20260904160100 88 216 6.0 10.0 0.00 0.21 0.00 67 1016.7
20260904155534 88 235 5.0 10.0 0.00 0.21 0.00 69 1016.8
20260904155036 88 221 5.0 10.0 0.00 0.21 0.00 68 1016.9
20260904154611 88 221 6.0 10.0 0.00 0.21 0.00 69 1016.9
20260904154035 87 219 2.0 10.0 0.00 0.21 0.00 74 1016.8
20260904153534 86 252 6.0 10.0 0.00 0.21 0.00 72 1016.9
20260904153103 86 225 2.0 7.0 0.00 0.21 0.00 74 1016.9
20260904152536 86 236 2.0 7.0 0.00 0.21 0.00 73 1017.0
20260904152033 86 198 3.0 7.0 0.00 0.21 0.00 73 1017.0
20260904151558 87 286 3.0 8.0 0.00 0.21 0.00 76 1017.0
20260904151036 86 242 4.0 8.0 0.00 0.21 0.00 77 1016.9
20260904150536 85 219 4.0 7.0 0.00 0.21 0.00 76 1016.9
20260904150059 85 259 3.0 7.0 0.00 0.21 0.00 77 1016.8
20260904145536 86 228 2.0 7.0 0.00 0.21 0.00 76 1016.8
20260904145034 86 238 3.0 7.0 0.00 0.21 0.00 77 1016.9
20260904144558 86 182 3.0 8.0 0.00 0.21 0.00 78 1016.8
20260904144035 85 194 4.0 8.0 0.00 0.21 0.00 79 1016.8
20260904143535 86 194 4.0 9.0 0.00 0.21 0.00 77 1016.6
20260904143102 86 219 5.0 9.0 0.00 0.21 0.00 77 1016.6
20260904142536 85 233 3.0 7.0 0.00 0.21 0.00 82 1016.5
20260904142034 85 227 2.0 8.0 0.00 0.21 0.00 84 1016.5
20260904141603 84 233 5.0 8.0 0.00 0.21 0.00 81 1016.5
20260904141036 84 221 4.0 9.0 0.00 0.21 0.00 80 1016.4
20260904140536 84 172 4.0 9.0 0.00 0.21 0.00 82 1016.3
20260904140109 84 184 3.0 8.0 0.00 0.21 0.00 81 1016.2
20260904135535 84 232 4.0 8.0 0.00 0.21 0.00 83 1016.2
20260904135033 83 215 4.0 8.0 0.00 0.21 0.00 85 1016.3
20260904134614 83 222 2.0 6.0 0.00 0.21 0.00 85 1016.3
20260904134037 83 221 3.0 6.0 0.00 0.21 0.00 85 1016.3
20260904133536 82 214 3.0 6.0 0.00 0.21 0.00 86 1016.3
20260904133102 82 205 4.0 6.0 0.00 0.21 0.00 86 1016.2
20260904132537 82 223 2.0 5.0 0.00 0.21 0.00 88 1016.1
20260904132035 81 180 3.0 5.0 0.00 0.21 0.00 88 1016.0
20260904131600 81 229 2.0 4.0 0.00 0.21 0.00 90 1016.0
20260904131036 81 220 2.0 4.0 0.00 0.21 0.00 91 1016.0
20260904130536 80 230 1.0 2.0 0.00 0.21 0.00 91 1016.0
20260904130059 80 193 1.0 3.0 0.00 0.21 0.00 91 1015.9
20260904125537 79 193 1.0 3.0 0.00 0.21 0.00 91 1016.0
20260904125038 79 198 1.0 3.0 0.00 0.21 0.00 92 1015.9
20260904124603 79 178 2.0 3.0 0.00 0.21 0.00 92 1015.9
20260904124034 78 194 2.0 3.0 0.00 0.21 0.00 92 1015.9
20260904123535 78 150 1.0 2.0 0.00 0.21 0.00 94 1015.9
20260904123111 78 150 1.0 3.0 0.00 0.21 0.00 94 1015.8
20260904122536 77 149 1.0 3.0 0.00 0.21 0.00 95 1015.8
20260904122037 77 149 1.0 3.0 0.00 0.21 0.00 96 1015.8
20260904121555 76 146 0.0 2.0 0.00 0.21 0.00 96 1015.8
20260904121036 76 134 0.0 2.0 0.00 0.21 0.00 96 1015.7
20260904120538 75 134 0.0 2.0 0.00 0.21 0.00 96 1015.6
20260904120105 75 134 0.0 2.0 0.00 0.21 0.00 96 1015.6
20260904115539 74 134 0.0 1.0 0.00 0.21 0.00 96 1015.6
20260904115035 74 0 0.0 1.0 0.00 0.21 0.00 96 1015.5
20260904114604 73 134 0.0 2.0 0.00 0.21 0.00 96 1015.5
20260904114034 73 134 0.0 2.0 0.00 0.21 0.00 96 1015.4
20260904113536 72 134 0.0 2.0 0.00 0.21 0.00 96 1015.3
20260904113100 72 134 0.0 2.0 0.00 0.21 0.00 96 1015.3
20260904112536 72 0 0.0 1.0 0.00 0.21 0.00 96 1015.2
20260904112037 72 0 0.0 1.0 0.00 0.21 0.00 96 1015.2
20260904111555 72 0 0.0 2.0 0.00 0.21 0.00 96 1015.1
20260904111035 72 0 0.0 2.0 0.00 0.21 0.00 96 1015.1
20260904110535 72 134 0.0 2.0 0.00 0.21 0.00 96 1015.2
20260904110104 72 134 1.0 2.0 0.00 0.21 0.00 96 1015.1
20260904105536 72 134 0.0 2.0 0.00 0.21 0.00 96 1015.1
20260904105039 72 0 0.0 2.0 0.00 0.21 0.00 96 1015.1
20260904104603 72 134 0.0 2.0 0.00 0.21 0.00 96 1014.9
20260904104036 72 0 0.0 0.0 0.00 0.21 0.00 96 1014.9
20260904103534 72 0 0.0 0.0 0.00 0.21 0.00 96 1014.9
20260904103059 72 0 0.0 0.0 0.00 0.21 0.00 96 1014.9
20260904102536 72 0 0.0 2.0 0.00 0.21 0.00 96 1014.8
20260904102036 72 0 0.0 2.0 0.00 0.21 0.00 96 1014.7
20260904101558 72 134 0.0 2.0 0.00 0.21 0.00 96 1014.7
20260904101035 72 134 0.0 2.0 0.00 0.21 0.00 96 1014.7
20260904100533 72 134 0.0 2.0 0.00 0.21 0.00 96 1014.6
20260904095534 72 134 0.0 2.0 0.00 0.21 0.00 96 1014.5
20260904095036 72 0 0.0 2.0 0.00 0.21 0.00 96 1014.5
20260904094604 72 134 0.0 1.0 0.00 0.21 0.00 95 1014.5
20260904094034 72 133 1.0 2.0 0.00 0.21 0.00 96 1014.4
20260904093536 72 133 1.0 2.0 0.00 0.21 0.00 96 1014.5
20260904093057 72 133 0.0 2.0 0.00 0.21 0.00 95 1014.4
20260904092535 71 0 0.0 2.0 0.00 0.21 0.00 95 1014.4
20260904092035 72 134 0.0 2.0 0.00 0.21 0.00 95 1014.3
20260904091556 72 133 0.0 2.0 0.00 0.21 0.00 95 1014.2
20260904091034 72 133 0.0 2.0 0.00 0.21 0.00 95 1014.3
20260904090535 72 134 0.0 1.0 0.00 0.21 0.00 96 1014.3
20260904090104 72 0 0.0 0.0 0.00 0.21 0.00 96 1014.3
20260904085536 72 0 0.0 2.0 0.00 0.21 0.00 96 1014.2
20260904085035 72 0 0.0 2.0 0.00 0.21 0.00 96 1014.2
20260904084600 72 0 0.0 2.0 0.00 0.21 0.00 96 1014.1
20260904084037 72 134 1.0 2.0 0.00 0.21 0.00 96 1014.0
20260904083536 72 134 0.0 2.0 0.00 0.21 0.00 95 1014.1
20260904083149 72 0 0.0 0.0 0.00 0.21 0.00 95 1014.1
20260904082539 71 0 0.0 2.0 0.00 0.21 0.00 95 1014.1
20260904082037 72 0 0.0 2.0 0.00 0.21 0.00 95 1014.2
20260904081606 72 134 0.0 2.0 0.00 0.21 0.00 95 1014.1
20260904081034 72 0 0.0 2.0 0.00 0.21 0.00 95 1014.2
20260904080535 72 0 0.0 2.0 0.00 0.21 0.00 95 1014.2
20260904075536 72 0 0.0 0.0 0.00 0.21 0.00 95 1014.3
20260904075035 72 0 0.0 0.0 0.00 0.21 0.00 95 1014.3
20260904074557 72 0 0.0 1.0 0.00 0.21 0.00 95 1014.1
20260904074036 72 0 0.0 2.0 0.00 0.21 0.00 95 1014.1
20260904073533 72 0 0.0 2.0 0.00 0.21 0.00 95 1013.9
20260904073100 72 0 0.0 0.0 0.00 0.21 0.00 95 1013.9
20260904072537 72 0 0.0 0.0 0.00 0.21 0.00 95 1013.9
20260904072035 72 0 0.0 0.0 0.00 0.21 0.00 95 1013.9
20260904071618 72 0 0.0 0.0 0.00 0.21 0.00 95 1014.0
20260904071035 72 0 0.0 0.0 0.00 0.21 0.00 95 1014.0
20260904070536 72 0 0.0 0.0 0.00 0.21 0.00 95 1014.1
20260904070113 72 0 0.0 0.0 0.00 0.21 0.00 95 1014.1
20260904065536 72 0 0.0 0.0 0.00 0.21 0.00 95 1014.2
20260904065035 72 0 0.0 0.0 0.00 0.21 0.00 95 1014.1
20260904064559 72 0 0.0 2.0 0.00 0.21 0.00 95 1014.2
20260904064036 72 0 0.0 2.0 0.00 0.21 0.00 95 1014.4
20260904063536 72 0 0.0 1.0 0.00 0.21 0.00 95 1014.4
20260904063106 72 134 0.0 2.0 0.00 0.21 0.00 95 1014.5
20260904062535 72 0 0.0 2.0 0.00 0.21 0.00 95 1014.4
20260904062034 72 134 0.0 2.0 0.00 0.21 0.00 95 1014.5
20260904061558 72 0 0.0 1.0 0.00 0.21 0.00 95 1014.5
20260904061035 72 0 0.0 2.0 0.00 0.21 0.00 95 1014.5
20260904060538 72 0 0.0 2.0 0.00 0.21 0.00 95 1014.6
20260904055536 72 0 0.0 2.0 0.00 0.21 0.00 95 1014.8
20260904055035 72 0 0.0 1.0 0.00 0.21 0.00 95 1014.8
20260904054559 72 0 0.0 1.0 0.00 0.21 0.00 95 1014.9
20260904054038 72 0 0.0 2.0 0.00 0.21 0.00 95 1014.9
20260904053535 72 0 0.0 2.0 0.00 0.21 0.00 95 1014.9
20260904053105 72 0 0.0 2.0 0.00 0.21 0.00 95 1014.9
20260904052535 72 134 0.0 2.0 0.00 0.21 0.00 95 1014.8
20260904052036 72 134 1.0 2.0 0.00 0.21 0.00 95 1014.9
20260904051557 72 133 1.0 2.0 0.00 0.21 0.00 95 1014.7
20260904051036 72 134 0.0 2.0 0.00 0.21 0.00 95 1014.7
20260904050535 72 0 0.0 2.0 0.00 0.21 0.00 95 1014.9
20260904045535 72 134 0.0 2.0 0.00 0.21 0.00 95 1014.9
20260904045034 72 134 0.0 2.0 0.00 0.21 0.00 95 1014.8
20260904044556 72 0 0.0 2.0 0.00 0.21 0.00 95 1014.9
20260904044039 72 134 1.0 2.0 0.00 0.21 0.00 95 1015.0
20260904043535 72 133 1.0 2.0 0.00 0.21 0.00 94 1015.0
20260904043100 72 134 0.0 2.0 0.00 0.21 0.00 94 1014.9
20260904042538 72 134 0.0 2.0 0.00 0.21 0.00 94 1014.9
20260904042036 72 134 1.0 1.0 0.00 0.21 0.00 94 1014.9
20260904041601 72 133 0.0 2.0 0.00 0.21 0.00 94 1014.9
20260904041039 72 133 0.0 2.0 0.00 0.21 0.00 94 1015.0
20260904040536 72 0 0.0 2.0 0.00 0.21 0.00 94 1015.0
20260904040110 72 0 0.0 2.0 0.00 0.21 0.00 94 1015.0
20260904035536 72 0 0.0 2.0 0.00 0.21 0.21 94 1015.0
20260904035037 73 134 0.0 2.0 0.00 0.21 0.21 94 1015.1
20260904034558 73 0 0.0 0.0 0.00 0.21 0.21 94 1015.0
20260904034035 73 0 0.0 2.0 0.00 0.21 0.21 94 1015.0
20260904033534 73 0 0.0 2.0 0.00 0.21 0.21 94 1015.0
20260904033053 73 134 1.0 2.0 0.00 0.21 0.21 94 1014.9
20260904032536 73 134 1.0 2.0 0.00 0.21 0.21 94 1015.0
20260904032035 73 0 0.0 2.0 0.00 0.21 0.21 94 1015.0
20260904031609 73 0 0.0 2.0 0.00 0.21 0.21 94 1015.1
20260904031035 73 133 0.0 1.0 0.00 0.21 0.21 94 1015.1
20260904030535 73 0 0.0 0.0 0.00 0.21 0.21 94 1015.0
20260904030059 73 0 0.0 0.0 0.00 0.21 0.21 94 1015.1
20260904025538 73 0 0.0 0.0 0.00 0.21 0.21 94 1015.1
20260904025036 73 0 0.0 2.0 0.00 0.21 0.21 94 1015.2
20260904024557 73 0 0.0 2.0 0.00 0.21 0.21 94 1015.1
20260904024036 73 133 0.0 1.0 0.00 0.21 0.21 94 1015.1
20260904023539 73 133 0.0 1.0 0.00 0.21 0.21 94 1015.2
20260904023058 73 134 0.0 1.0 0.00 0.21 0.21 94 1015.2
20260904022535 73 133 0.0 1.0 0.00 0.21 0.21 94 1015.1
20260904022035 73 0 0.0 1.0 0.00 0.21 0.21 94 1015.2
20260904021602 73 0 0.0 2.0 0.00 0.21 0.21 94 1015.3
20260904021034 73 133 1.0 2.0 0.00 0.21 0.21 94 1015.3
20260904020536 73 134 1.0 2.0 0.00 0.21 0.21 94 1015.3
20260904020058 74 134 0.0 2.0 0.00 0.21 0.21 94 1015.4
20260904015536 74 0 0.0 2.0 0.00 0.21 0.21 94 1015.3
20260904015035 74 133 1.0 2.0 0.00 0.21 0.21 94 1015.3
20260904014557 74 133 1.0 2.0 0.00 0.21 0.21 94 1015.3
20260904014036 74 133 1.0 2.0 0.00 0.21 0.21 94 1015.3
20260904013535 74 134 1.0 2.0 0.00 0.21 0.21 94 1015.3
20260904013101 74 134 0.0 2.0 0.00 0.21 0.21 94 1015.3